Location: Huntsville
(41.2590°N, 111.7678°W)
Time: 11:44:49
(UTC+00:00)

Courier 1B Rocket - Pass Details

Date: 22 June 2021
Orbit: 920 x 1202 km, 28.2° (Epoch: 29 July)

Event Time Altitude Azimuth Distance (km) Brightness Sun altitude
Rises 05:13:41 0° 255° (WSW) 3,703 8.3 -18.1°
Reaches altitude 10° 05:17:14 10° 238° (WSW) 2,704 7.3 -18.4°
Maximum altitude 05:21:32 19° 196° (SSW) 2,101 6.4 -18.9°
Enters shadow 05:21:35 19° 196° (SSW) 2,100 6.4 -18.9°
Drops below altitude 10° 05:25:42 10° 154° (SSE) 2,619 - -19.3°
Sets 05:29:04 0° 137° (SE) 3,545 - -19.6°
